Flag for USA

Past Weather in State College, Pennsylvania, USA — Yesterday and Last 2 Weeks

Now
43 °F

Sunny.


Feels Like: 43 °F
Forecast: 61 / 36 °F
Wind: No wind

Location: University Park Airport
Current Time: Sep 19, 2020 at 9:24:53 am
Latest Report: Sep 19, 2020 at 8:53 am
Visibility: 10 mi
Pressure30.38 "Hg
Humidity: 71%
Dew Point: 34 °F
Location of State CollegeLocation

Past Weather in State College — Graph

°F

State College Temperature Yesterday

Maximum temperature yesterday: 68 °F (at 2:53 pm)
Minimum temperature yesterday: 46 °F (at 11:55 pm)
Average temperature yesterday: 58 °F

High & Low Weather Summary for the Past Weeks

 TemperatureHumidityPressure
High84 °F (Sep 8, 3:53 pm)100% (Sep 9, 7:53 am)30.40 "Hg (Sep 9, 7:53 am)
Low37 °F (Sep 19, 6:53 am)29% (Sep 4, 11:53 am)29.96 "Hg (Sep 4, 7:53 am)
Average63 °F74%30.18 "Hg
* Reported Sep 4 7:53 am — Sep 19 7:53 am, State College. Weather by CustomWeather, © 2020

Note: Actual official high and low records may vary slightly from our data, if they occured in-between our weather recording intervals... More about our weather records

State College Weather History for the Previous 24 Hours

Scroll right to see more
 ConditionsComfort  
Time TempWeatherWind HumidityBarometerVisibility
7:53 am
Sat, Sep 19
37 °FSunny.No wind81%30.37 "Hg10 mi
6:53 am37 °FClear.No wind81%30.35 "Hg10 mi
5:53 am39 °FPassing clouds.No wind75%30.33 "Hg10 mi
4:55 am40 °FClear.3 mph72%30.32 "Hg10 mi
4:35 am40 °FPassing clouds.No wind70%30.32 "Hg10 mi
4:15 am40 °FPassing clouds.No wind71%30.31 "Hg10 mi
3:35 am40 °FClear.No wind72%30.30 "Hg10 mi
3:15 am42 °FPassing clouds.No wind66%30.30 "Hg10 mi
2:55 am41 °FPassing clouds.No wind70%30.30 "Hg10 mi
2:35 am43 °FClear.No wind64%30.30 "Hg10 mi
2:15 am43 °FClear.3 mph62%30.30 "Hg10 mi
1:55 am43 °FClear.No wind63%30.30 "Hg10 mi
1:35 am44 °FPassing clouds.No wind60%30.29 "Hg10 mi
1:15 am44 °FClear.3 mph60%30.29 "Hg10 mi
12:55 am45 °FClear.No wind60%30.29 "Hg10 mi
12:35 am46 °FClear.No wind57%30.28 "Hg10 mi
12:15 am46 °FClear.No wind55%30.28 "Hg10 mi
11:55 pm
Fri, Sep 18
46 °FClear.No wind55%30.28 "Hg10 mi
11:35 pm47 °FClear.7 mph55%30.27 "Hg10 mi
11:15 pm48 °FPassing clouds.7 mph55%30.27 "Hg10 mi
10:55 pm48 °FPassing clouds.8 mph55%30.26 "Hg10 mi
10:35 pm49 °FClear.8 mph51%30.26 "Hg10 mi
10:15 pm50 °FPassing clouds.8 mph50%30.25 "Hg10 mi
8:53 pm54 °FPassing clouds.12 mph47%30.20 "Hg10 mi
7:53 pm57 °FPassing clouds.12 mph44%30.16 "Hg10 mi
6:53 pm59 °FScattered clouds.7 mph45%30.13 "Hg10 mi
5:53 pm61 °FScattered clouds.9 mph42%30.11 "Hg10 mi
4:53 pm64 °FScattered clouds.14 mph40%30.10 "Hg10 mi
3:53 pm64 °FScattered clouds.13 mph40%30.08 "Hg10 mi
2:53 pm68 °FScattered clouds.13 mph35%30.07 "Hg10 mi
1:53 pm66 °FScattered clouds.14 mph40%30.08 "Hg10 mi
12:53 pm66 °FScattered clouds.12 mph40%30.09 "Hg10 mi
11:53 am64 °FScattered clouds.12 mph46%30.09 "Hg10 mi
10:53 am59 °FPassing clouds.9 mph59%30.10 "Hg10 mi
9:53 am59 °FPartly sunny.13 mph59%30.08 "Hg10 mi
Weather by CustomWeather, © 2020

See weather overview